Theta_e
291 292 292 291 291 290 288 288 287 287 287 288 288 289 289 289 289 288 288 288 289 289 289 289 289 289 289 289 288 287 287 286 286 286 286 284 285 285 284 284 283 283 283 283 282 281 281 280 280 280 279 279 279 279 278 278 278 278 277 277 277 277
293 292 292 291 290 290 289 288 286 286 287 287 288 288 287 287 287 287 288 288 288 289 288 288 289 289 289 288 288 287 286 286 286 285 285 285 285 284 284 284 283 283 283 283 282 281 281 280 280 280 279 279 279 279 278 278 278 278 277 277 277 277
292 292 290 291 288 287 288 289 289 289 287 287 287 287 287 287 288 287 288 288 288 288 288 288 288 288 288 287 287 287 286 286 286 285 286 284 284 284 284 284 283 283 283 282 282 281 281 280 280 280 279 279 279 279 278 278 278 277 277 277 276 276
289 289 289 289 289 289 290 291 289 289 289 289 288 287 286 287 287 288 288 288 289 288 288 288 288 288 287 287 286 286 286 286 286 286 285 285 285 284 284 284 283 283 283 282 282 282 281 280 280 280 280 279 279 278 278 277 277 277 277 276 276 276
286 287 287 287 288 288 289 289 290 290 289 288 287 287 287 287 288 287 287 287 288 288 288 287 287 286 286 286 286 286 286 286 286 286 285 285 284 284 284 284 283 283 283 282 282 281 281 280 280 280 279 279 279 278 278 277 277 277 277 276 276 276
285 286 286 286 287 287 288 289 289 290 290 289 288 288 288 288 287 287 286 287 287 287 287 287 287 286 286 286 287 286 287 287 286 286 285 285 284 283 284 284 283 283 282 282 282 281 281 280 280 280 279 279 279 278 278 277 277 278 277 277 277 276
284 284 285 285 286 286 287 288 288 289 289 290 290 289 289 288 288 287 287 286 286 287 287 287 286 286 286 286 287 287 287 287 286 285 285 284 284 284 283 283 283 282 282 282 282 281 281 280 280 280 279 279 279 279 278 278 277 277 277 277 277 277
284 284 284 285 286 286 286 287 287 288 288 289 289 289 289 290 288 287 287 286 286 286 286 286 286 286 287 287 287 287 287 287 286 285 284 284 284 284 283 283 283 283 282 282 282 281 281 281 280 280 279 279 279 279 278 278 277 278 277 277 277 276
283 283 284 285 285 286 286 287 287 287 287 287 288 289 289 289 288 288 287 287 286 286 286 285 286 286 287 287 287 287 287 286 286 285 285 284 284 283 283 283 282 283 282 282 282 281 281 280 280 280 279 279 279 278 278 277 277 277 277 276 276 276
282 283 283 284 284 285 286 286 287 286 286 286 287 288 288 288 288 288 287 287 286 286 287 287 287 287 287 287 287 287 287 286 286 286 285 284 283 283 283 283 283 283 282 282 282 281 281 280 280 279 279 279 278 278 277 277 277 276 276 276 275 275
282 282 282 283 283 284 284 285 286 286 286 286 286 287 287 287 287 287 287 287 287 287 287 287 287 287 286 286 286 286 286 286 286 286 285 284 283 284 283 283 282 282 281 281 281 281 281 280 280 279 279 278 278 278 277 277 276 276 275 275 274 274
281 282 282 282 283 283 283 284 285 285 284 284 285 286 286 287 286 286 286 286 286 287 287 287 287 286 286 285 285 286 286 285 285 284 284 284 283 283 282 282 281 281 281 281 280 280 280 280 280 281 283 282 278 278 277 277 276 276 275 275 274 273
281 282 282 282 282 283 283 284 284 284 284 284 284 285 285 285 286 286 285 285 286 286 286 286 286 286 286 286 286 286 286 285 285 284 284 283 283 282 282 281 281 281 281 281 280 280 280 280 280 283 284 284 284 279 277 276 276 276 275 274 273 272
282 282 282 283 283 283 283 283 284 284 283 283 283 284 284 284 284 285 285 285 285 285 285 285 286 286 286 285 285 285 285 285 284 284 284 283 282 282 282 281 281 281 281 281 280 280 280 279 282 284 285 285 285 282 278 277 276 275 275 274 274 273
282 283 283 284 284 284 284 284 283 283 283 283 283 283 283 283 283 283 284 284 284 284 284 284 284 284 285 285 285 285 284 284 284 283 282 282 282 282 281 281 281 280 281 281 280 280 280 279 283 284 285 285 285 284 280 276 276 275 274 274 274 274
283 283 283 284 284 284 285 285 284 284 284 283 283 283 282 282 282 282 283 283 283 283 283 282 283 283 284 284 284 283 283 282 283 283 283 282 281 281 281 280 280 280 280 280 280 280 280 279 282 285 285 286 286 285 282 276 275 275 274 274 274 274
283 283 283 283 284 284 285 285 285 285 284 284 283 283 282 282 282 282 282 282 282 283 282 282 281 281 282 282 282 282 282 282 282 282 282 282 281 281 281 280 280 280 280 280 280 279 279 279 282 284 285 286 286 285 283 276 275 275 274 274 274 274
282 282 282 284 284 284 284 284 285 285 284 284 284 284 283 283 282 282 282 281 281 281 282 281 280 281 281 281 281 280 281 281 281 281 281 280 281 281 281 280 280 280 279 279 279 279 278 278 282 284 285 286 286 286 280 276 275 274 274 274 274 274
282 282 283 283 284 283 283 284 285 284 283 283 283 283 283 283 283 283 282 281 281 281 281 280 280 279 280 280 279 279 279 279 279 279 278 278 278 279 279 279 280 280 280 279 279 278 278 277 281 284 285 286 286 285 278 275 274 274 273 273 273 273
282 282 283 282 283 283 283 284 284 283 282 282 282 283 283 283 282 283 282 282 282 281 281 281 280 280 279 279 278 278 279 277 277 278 277 278 277 277 277 276 277 278 278 279 278 278 277 276 279 283 285 286 286 283 276 275 274 273 273 273 273 274
282 282 282 282 282 282 283 283 283 282 281 281 281 282 281 282 282 282 282 282 282 282 282 281 281 281 280 279 279 278 278 277 277 275 273 275 276 277 277 277 277 276 276 277 278 279 278 276 278 283 285 285 286 282 275 274 273 273 272 273 272 274
281 281 281 281 281 282 282 282 282 281 281 280 281 281 281 281 282 283 282 282 282 282 282 282 281 281 280 280 280 280 279 278 276 275 274 273 275 274 275 276 276 276 275 276 276 276 277 276 276 281 284 285 286 283 276 274 273 272 272 273 273 273
280 280 280 281 281 281 281 281 280 280 280 280 280 280 280 281 282 282 282 282 282 282 282 281 281 280 280 280 279 279 278 277 278 276 274 273 272 272 273 274 275 275 275 274 275 275 276 275 275 279 284 285 286 284 278 274 274 274 273 273 273 273
279 279 280 280 280 280 280 280 279 279 279 279 278 279 281 281 281 281 282 282 282 281 281 281 281 280 279 279 278 278 278 277 275 276 275 274 273 273 273 274 274 274 273 273 274 274 274 275 277 277 282 285 286 284 281 275 275 275 274 273 273 273
277 277 278 278 278 278 279 278 277 277 277 277 278 279 280 280 280 280 281 281 281 281 281 280 280 280 279 278 278 277 277 276 274 274 274 274 274 274 273 273 273 273 272 272 272 273 274 274 276 279 280 284 285 285 282 279 277 279 275 274 273 273
276 276 276 276 276 276 276 276 276 276 276 276 278 279 279 279 279 280 280 280 280 280 281 280 279 279 278 278 277 277 277 276 275 274 274 274 274 273 273 273 272 272 272 271 271 272 273 273 274 277 280 282 285 286 284 281 280 280 275 275 274 274
273 274 274 274 274 274 274 274 274 274 274 276 277 277 277 277 278 278 277 277 278 279 280 280 279 278 278 278 277 276 276 276 274 273 273 273 273 273 273 273 272 272 272 272 271 271 272 272 273 274 278 281 283 285 285 282 281 281 279 274 273 274
272 272 272 272 273 273 273 273 272 272 273 275 275 275 275 275 275 275 275 276 277 277 278 278 278 279 278 277 277 277 277 276 275 274 274 273 273 273 273 273 272 272 272 272 271 271 270 271 272 273 275 279 281 283 285 283 281 280 279 276 274 276
271 270 271 271 272 272 272 272 272 273 273 273 273 273 273 273 273 273 273 273 273 274 274 274 275 277 278 277 277 276 276 276 276 275 274 274 273 273 273 273 273 272 272 272 271 270 270 269 271 272 273 276 278 280 282 282 280 280 278 275 274 276
269 269 269 270 271 271 271 271 271 271 271 271 272 271 271 271 271 270 270 270 270 271 271 272 273 275 276 277 276 276 276 276 276 275 275 274 274 273 273 273 273 273 272 272 272 270 269 269 270 271 272 274 277 279 281 280 278 277 274 273 274 274
268 269 268 269 270 270 270 270 270 270 270 270 269 269 268 268 269 268 267 267 268 268 270 271 272 273 275 276 276 276 277 276 276 275 275 277 277 276 275 275 274 274 274 273 272 270 269 269 269 270 275 275 278 279 279 278 277 276 273 275 277 274
268 267 268 268 269 268 268 268 268 269 269 268 267 267 266 266 266 265 265 266 266 267 269 270 271 272 273 274 275 276 276 277 279 278 276 276 278 280 280 280 276 276 275 274 273 273 271 270 271 275 277 278 280 281 282 280 280 278 275 277 279 275
267 267 266 267 267 267 267 266 266 266 266 266 265 265 264 264 264 264 264 265 266 267 268 269 269 270 271 272 274 275 275 275 276 280 281 280 279 279 280 281 281 281 279 275 273 274 278 276 276 277 278 278 280 281 282 282 280 279 278 279 275 272
265 264 264 265 265 264 264 264 264 264 264 264 263 263 263 263 263 262 263 264 264 266 266 266 267 268 269 270 271 273 274 274 274 274 278 281 281 281 280 280 281 281 281 280 277 274 273 276 277 277 278 279 280 281 282 282 281 280 279 280 277 270
263 263 262 262 262 261 261 261 261 262 262 262 262 262 261 261 261 261 261 262 263 263 264 265 265 266 267 268 269 271 272 273 273 273 273 275 280 281 281 280 280 281 281 281 280 279 276 276 277 278 278 279 280 281 281 282 281 280 280 279 273 269
260 260 260 259 259 259 259 259 260 260 260 260 260 260 260 260 260 260 260 261 261 261 262 263 263 264 265 266 268 269 271 273 273 273 273 273 272 274 278 280 281 280 281 281 280 279 278 278 278 278 278 279 280 281 281 281 280 281 281 277 270 269
258 258 258 258 258 258 258 257 258 259 259 259 259 259 259 259 259 260 261 262 263 262 263 263 264 264 265 266 268 269 270 271 272 273 273 273 272 272 271 273 275 279 280 278 279 280 279 278 278 278 279 279 280 280 281 282 278 276 276 274 270 268
256 256 257 257 256 256 256 256 258 258 258 259 258 258 258 259 259 260 260 261 262 263 263 264 266 267 268 269 270 271 271 272 272 273 273 273 273 272 272 272 273 274 278 280 280 280 280 279 279 279 279 279 280 280 281 277 275 274 274 270 268 267
Wind_Speed
4 5 7 6 5 5 5 4 3 3 4 5 7 11 11 8 6 6 7 8 9 9 11 11 12 11 11 10 8 9 12 13 12 12 11 5 8 12 12 13 14 13 14 14 13 13 14 12 12 12 11 11 10 10 9 8 10 10 10 8 9 8
12 12 14 10 6 6 6 5 4 4 5 5 6 6 5 5 6 6 9 9 8 10 8 10 11 11 11 9 9 10 12 12 11 11 10 13 9 9 11 13 14 15 16 15 15 14 13 14 13 13 12 11 11 10 10 10 11 11 11 10 8 8
19 18 13 12 9 8 9 10 9 7 5 6 6 8 7 6 7 7 10 8 11 11 12 12 11 13 11 9 9 11 11 10 12 12 12 7 12 12 14 14 14 15 15 15 15 16 15 15 14 13 12 12 12 11 11 10 11 12 10 9 10 8
17 17 17 12 11 12 13 13 10 9 9 7 7 7 7 6 7 8 8 7 9 11 13 12 9 10 9 11 10 12 11 10 12 12 10 14 13 13 15 14 13 13 14 15 16 15 15 15 15 15 14 14 14 13 10 11 13 12 10 10 12 11
12 13 16 18 18 18 15 10 10 12 11 9 8 7 9 6 7 5 5 7 8 11 10 8 9 7 8 11 11 13 13 13 12 10 13 14 11 11 12 14 14 15 15 14 14 15 15 16 16 15 15 15 16 16 14 13 14 14 14 14 14 13
13 16 17 18 18 16 16 16 16 14 11 10 8 9 11 9 7 6 6 7 9 9 8 10 8 7 10 11 12 14 14 13 11 10 12 12 11 13 12 12 14 13 15 15 15 15 15 16 15 15 16 16 17 16 16 15 15 14 14 14 14 13
17 14 14 14 14 14 15 15 15 15 16 14 14 12 11 9 8 7 7 7 10 9 9 10 8 9 11 13 12 15 15 13 12 9 10 8 10 11 11 12 12 13 14 15 17 18 18 18 17 17 16 15 15 16 15 15 15 15 15 14 13 13
12 14 15 13 13 13 13 13 13 14 13 14 13 13 12 12 10 8 8 8 9 10 10 10 7 11 13 14 14 15 12 10 9 10 8 10 12 10 11 12 12 13 16 15 15 16 17 16 16 17 18 17 16 15 14 14 15 15 14 14 13 13
17 14 14 13 12 13 12 12 13 13 13 14 14 13 13 12 11 10 8 9 8 9 9 8 10 11 12 13 14 11 10 11 11 11 12 11 12 12 12 12 14 13 15 16 15 15 15 15 16 16 15 15 16 16 16 15 15 14 13 13 13 12
14 15 15 15 14 14 13 12 12 12 12 13 12 12 13 12 13 12 10 8 9 8 9 9 10 11 12 11 10 11 11 11 11 13 12 10 13 14 14 14 14 13 11 13 14 14 13 14 14 14 15 15 16 16 16 16 15 15 14 13 12 12
13 13 14 14 14 15 14 13 13 13 13 12 12 12 13 12 12 13 11 10 9 10 10 9 8 8 9 10 10 11 11 12 12 11 10 11 13 12 13 12 11 11 12 11 11 12 12 14 15 15 15 16 17 16 16 17 17 15 14 13 13 12
12 11 12 13 13 14 13 12 12 12 13 13 12 12 12 11 11 12 13 12 11 10 10 10 8 8 9 9 10 11 11 10 11 11 12 13 13 12 10 10 12 12 13 13 12 12 12 13 12 13 20 18 16 17 14 14 15 16 15 14 13 12
9 10 11 12 12 12 11 10 10 10 10 11 12 11 11 10 11 11 11 12 12 12 11 10 9 9 9 10 10 10 10 11 10 11 11 11 11 12 12 12 13 14 13 14 14 14 13 12 11 17 24 25 24 17 15 15 15 15 15 15 16 15
11 11 12 12 12 12 11 11 11 11 11 11 10 10 9 9 9 10 10 10 10 11 12 11 11 11 10 9 9 9 9 9 9 10 10 10 12 12 11 14 15 13 12 12 13 15 14 13 13 22 25 26 26 20 15 14 13 14 15 15 15 13
11 12 12 11 11 11 12 10 10 11 12 12 10 8 8 8 9 9 10 11 10 10 10 11 11 11 10 10 10 9 7 8 9 10 9 12 11 9 12 15 13 15 15 14 16 16 14 13 15 22 25 26 26 26 19 12 13 13 15 15 15 14
10 11 11 10 10 10 10 8 9 10 9 10 9 8 9 7 7 8 10 11 11 11 10 9 10 10 10 9 8 8 7 8 10 10 9 8 6 10 11 11 13 12 12 14 14 13 12 12 14 22 24 25 26 25 20 12 14 14 14 15 14 13
9 11 12 12 12 11 11 11 9 10 11 11 11 9 9 8 7 8 8 9 10 11 11 10 9 9 9 9 7 6 7 8 8 8 7 7 10 11 12 12 12 12 11 11 11 11 12 12 16 22 24 24 25 25 21 12 12 12 12 13 14 12
9 9 11 10 10 11 10 10 11 11 12 11 11 12 11 10 9 9 9 10 10 10 11 11 11 10 9 7 7 7 7 7 8 8 7 6 7 6 6 6 7 9 10 10 10 11 12 9 17 21 23 25 24 26 15 12 12 12 12 13 8 8
8 9 8 9 9 10 11 10 11 11 11 12 11 11 12 11 11 12 12 12 11 11 10 9 9 11 12 11 9 7 7 7 7 6 4 5 6 7 8 8 8 8 10 10 11 11 11 9 16 23 24 25 26 20 12 12 11 11 12 13 10 11
7 8 8 9 9 9 9 9 10 11 11 11 11 11 11 10 11 11 11 11 11 11 11 10 9 10 10 9 10 10 8 6 5 5 4 6 6 7 7 5 6 6 7 10 11 12 11 9 14 24 24 26 27 19 13 12 12 11 11 11 9 9
8 8 8 8 9 10 8 9 10 10 11 10 10 9 10 10 11 12 12 12 11 11 10 9 9 9 9 9 9 8 8 7 7 5 4 6 5 6 4 5 6 6 6 8 9 8 11 9 11 22 24 26 27 19 12 12 11 12 11 11 11 9
7 8 8 9 9 8 7 7 8 9 11 11 10 9 9 9 9 9 9 10 10 10 10 10 9 9 8 8 8 7 7 6 5 5 4 5 6 6 4 5 6 7 7 6 8 8 9 9 9 15 24 25 27 23 14 11 12 13 12 10 10 11
8 9 10 8 8 7 6 6 7 9 10 11 11 11 11 9 9 9 9 8 9 10 10 9 8 10 9 7 7 5 4 4 5 5 4 5 4 4 5 6 6 6 6 6 7 7 8 8 10 13 23 26 28 25 20 12 13 11 11 12 11 10
9 10 10 8 8 7 6 7 8 9 9 9 12 12 10 10 10 10 10 9 9 10 10 10 9 8 8 7 6 7 6 3 3 4 4 4 4 6 7 6 5 6 6 5 6 7 8 8 13 10 18 26 28 26 24 14 12 12 12 11 11 10
10 10 10 8 6 5 6 6 9 10 10 11 13 10 10 10 10 11 11 10 11 11 11 10 9 9 7 7 6 6 8 5 3 4 3 5 5 6 7 6 6 6 6 5 5 5 7 8 10 17 14 22 27 29 25 21 14 19 12 12 13 13
9 11 9 8 7 7 7 7 10 11 12 14 12 9 10 10 11 11 12 12 12 12 11 10 9 7 6 7 6 6 7 7 5 4 4 5 6 6 7 6 5 6 7 8 7 7 7 7 7 14 18 16 26 26 27 24 21 20 11 9 9 5
11 11 11 11 10 9 8 6 9 12 16 14 9 9 11 11 12 12 13 13 13 13 11 11 9 8 7 7 6 7 7 8 5 6 5 5 6 7 7 7 6 8 8 8 9 8 7 7 8 8 15 19 19 25 25 26 23 21 20 11 7 6
9 11 14 15 13 11 8 8 7 13 15 12 9 9 9 12 13 13 14 14 13 13 13 15 14 11 8 8 7 8 8 8 7 7 6 6 7 8 8 8 7 8 8 9 9 10 11 9 8 9 10 13 15 18 25 26 25 24 22 15 10 15
12 14 14 16 16 14 10 10 10 11 11 12 11 9 9 10 12 14 13 14 13 14 14 16 14 13 10 8 7 7 8 7 7 8 8 7 8 9 9 9 8 8 9 10 9 9 9 10 9 9 9 10 11 11 14 18 17 23 21 14 11 14
13 15 15 16 16 14 13 12 12 12 12 11 11 10 10 11 12 13 13 15 14 13 14 14 16 16 12 10 8 8 8 8 9 9 10 10 10 10 10 10 10 11 11 10 8 8 9 10 10 10 11 11 11 11 11 13 14 14 13 13 12 12
15 15 16 18 17 14 14 14 14 13 13 11 8 8 11 13 14 14 16 16 14 15 14 13 12 12 12 11 9 9 10 10 10 11 11 12 10 11 12 11 11 11 10 9 9 10 11 11 13 14 15 14 17 15 13 12 12 12 12 17 22 14
15 16 18 18 16 15 15 16 14 13 11 9 8 9 12 14 15 16 17 16 15 15 14 12 12 11 11 11 11 11 10 13 18 13 12 12 14 21 20 15 12 11 9 10 10 12 14 16 16 17 24 24 24 25 22 16 19 17 15 23 33 20
16 16 18 18 17 16 15 15 14 14 12 9 8 11 14 15 15 15 16 15 14 15 14 13 13 12 12 12 12 11 12 11 11 21 26 22 16 16 23 25 24 20 16 12 10 12 21 15 11 20 25 27 27 27 26 22 25 25 27 30 21 15
18 16 17 16 17 17 15 15 14 14 11 10 11 12 14 15 15 16 16 16 15 16 16 13 13 14 14 13 13 12 12 11 12 10 16 25 26 25 24 25 26 26 24 23 19 11 10 19 20 22 25 27 28 28 28 26 28 29 32 32 28 15
15 16 16 14 16 15 18 17 21 15 14 13 12 11 15 17 17 18 18 18 17 16 16 15 14 13 13 14 13 13 12 12 11 13 11 10 20 26 25 25 26 26 26 25 25 24 18 17 20 24 26 28 29 29 30 28 30 31 33 32 18 14
16 18 19 18 18 21 20 21 20 18 15 15 15 15 16 19 19 19 16 16 17 15 13 12 11 13 13 14 15 15 14 12 11 12 12 10 6 10 17 24 27 26 26 27 26 24 24 24 25 26 27 29 30 30 31 27 23 31 35 28 16 13
20 17 20 23 23 20 19 23 20 17 13 16 15 17 15 17 16 16 18 30 25 14 13 12 13 14 15 16 14 13 11 12 14 12 11 11 11 11 11 10 13 20 26 20 19 22 25 25 26 27 27 29 29 30 30 28 18 20 20 18 13 13
19 17 19 18 20 18 22 21 19 13 16 15 15 15 18 16 17 15 14 13 17 16 14 14 13 11 11 11 11 11 12 14 14 13 12 11 11 11 10 10 10 10 16 28 25 25 25 26 26 26 28 28 30 30 32 19 16 16 15 13 12 12
Wind_Direction
271 332 6 5 340 307 284 295 284 267 245 232 219 223 224 224 219 221 226 222 222 215 219 220 225 229 232 230 218 192 195 198 201 203 206 183 183 186 178 179 181 182 185 186 187 185 187 184 186 183 186 187 190 189 189 180 176 180 180 179 174 172
359 15 11 359 3 350 337 331 333 296 281 269 256 259 250 226 218 210 220 220 224 229 219 221 221 224 228 229 223 215 206 203 200 200 195 200 183 186 181 186 185 183 183 187 185 184 183 184 185 182 184 184 193 188 188 184 180 184 183 178 177 168
2 2 16 15 13 19 3 350 335 319 319 294 281 264 253 235 224 214 225 212 223 221 225 223 214 222 217 217 222 228 227 208 201 202 202 168 194 185 188 190 188 187 186 183 186 185 184 184 183 184 183 186 190 190 189 180 185 188 188 174 177 175
1 1 360 13 25 24 15 0 350 342 327 310 295 288 272 260 248 233 236 229 231 227 230 229 230 226 213 217 216 222 222 223 214 205 187 200 199 185 192 190 188 188 186 186 187 186 185 185 186 183 184 187 188 189 186 184 185 189 186 180 185 181
5 2 6 5 4 4 11 21 18 360 345 330 316 301 284 272 270 274 257 242 238 237 237 236 231 224 223 223 222 221 220 218 219 206 204 208 197 195 193 190 188 189 187 188 186 185 186 187 187 186 186 189 188 187 187 186 186 188 185 188 192 185
9 13 9 4 1 2 2 358 0 8 10 355 331 315 299 297 280 266 251 245 245 242 238 233 228 221 224 225 225 227 225 222 220 213 218 211 194 194 198 193 192 187 189 189 186 187 188 188 189 187 190 189 188 189 189 186 189 192 192 191 188 183
13 8 4 2 359 359 360 1 2 1 359 358 354 340 319 301 286 273 259 248 251 246 239 238 222 224 226 228 228 230 227 220 218 210 218 217 218 209 194 196 191 191 190 192 191 190 190 190 187 187 189 190 191 191 188 187 190 194 194 192 190 186
8 8 4 1 1 358 356 358 359 359 360 357 353 349 341 328 311 288 274 263 257 254 245 243 229 229 229 229 231 232 231 230 227 219 211 204 212 211 210 200 193 196 196 198 197 195 193 188 187 189 190 189 187 188 190 190 191 194 192 191 190 188
8 2 1 360 357 358 358 357 357 357 356 355 354 350 346 338 329 309 290 277 265 266 258 250 239 236 235 233 233 231 224 221 218 213 214 204 209 205 205 208 202 202 199 200 196 197 192 190 191 190 188 189 188 187 187 189 191 192 192 193 189 187
360 360 357 356 355 353 356 356 357 356 353 350 349 347 349 347 341 332 313 296 287 277 269 256 248 244 242 240 237 232 229 224 218 216 212 199 206 207 207 205 208 210 208 205 200 198 189 188 191 192 190 188 190 189 189 188 190 190 190 187 185 185
355 352 352 349 349 352 352 352 352 351 349 349 347 348 350 346 347 346 338 322 304 289 278 273 263 256 251 244 240 235 230 226 223 219 210 205 209 208 207 205 205 203 206 210 207 202 197 194 193 191 190 189 189 192 191 189 187 187 186 184 185 184
349 347 344 346 347 347 347 348 348 348 345 343 342 344 345 348 352 354 353 348 331 313 300 287 278 267 257 250 244 241 235 230 224 216 214 212 210 208 202 199 201 204 205 201 203 200 201 206 203 191 188 187 188 187 189 190 189 185 183 182 181 181
341 341 342 342 343 340 341 339 337 338 338 338 338 340 341 345 349 356 357 353 345 335 326 315 298 283 269 259 253 250 243 234 226 220 218 214 206 205 201 196 202 204 201 201 200 201 206 208 206 190 191 191 188 184 185 186 188 186 182 181 180 183
342 341 338 335 335 336 337 337 336 337 339 334 332 332 333 341 348 351 353 350 345 344 337 329 319 308 292 278 265 255 246 241 232 227 221 213 208 206 199 204 206 201 197 200 203 206 208 208 202 194 194 192 190 184 184 186 186 186 187 185 183 182
332 330 331 331 331 332 329 329 331 335 332 330 324 323 334 338 343 346 350 347 347 345 340 333 327 315 306 294 282 273 263 250 239 233 224 219 215 200 206 211 200 203 200 197 202 208 207 210 202 199 195 192 191 187 182 187 186 185 189 186 184 180
324 325 324 321 321 320 318 321 323 322 321 317 317 325 332 332 338 346 344 345 344 343 340 336 331 323 312 303 293 283 269 255 244 236 229 227 210 210 214 212 211 210 203 204 203 206 205 208 202 200 198 195 192 188 181 185 184 189 189 187 184 180
317 319 322 324 325 324 324 325 328 327 326 328 326 327 330 331 334 343 346 342 340 341 341 338 333 324 316 309 297 281 268 255 253 245 231 217 211 212 213 210 211 210 208 206 204 204 205 206 198 200 199 196 191 189 181 182 184 186 188 187 187 182
310 311 310 312 317 318 322 320 326 329 326 326 326 329 333 332 336 339 344 342 341 340 337 337 333 329 322 311 303 291 270 254 246 243 233 224 227 226 223 225 216 212 209 207 202 206 209 200 196 200 199 195 192 188 181 182 185 185 185 186 173 163
295 298 300 302 307 312 315 321 325 325 323 325 326 328 329 332 335 339 340 338 336 335 332 331 330 328 328 325 319 299 284 277 267 261 239 229 228 220 217 217 210 210 209 205 204 205 208 198 195 197 196 194 192 186 181 180 183 185 186 187 173 173
289 293 292 294 299 302 309 317 321 321 320 318 321 324 324 328 328 332 333 330 330 328 328 330 331 328 324 322 316 307 296 281 271 257 230 229 231 228 225 210 213 211 207 206 207 205 205 201 194 195 196 193 193 183 177 179 183 186 184 184 173 172
282 287 287 284 292 298 306 311 315 315 312 311 312 313 315 320 324 329 330 326 324 322 320 321 324 325 324 320 312 304 294 282 266 254 218 227 228 233 216 202 207 211 206 210 207 199 202 198 196 198 197 194 193 182 172 176 183 183 188 181 176 175
284 283 278 280 282 289 296 305 309 308 306 305 305 305 306 310 315 317 314 314 315 314 316 317 318 315 316 311 306 305 288 284 278 256 233 232 216 220 207 210 211 208 211 197 197 201 200 194 194 201 200 198 196 183 169 177 181 188 186 181 177 172
280 280 277 273 279 285 290 295 299 298 300 302 304 300 300 303 308 311 310 305 307 310 309 308 309 312 310 303 295 290 279 256 254 254 244 234 226 203 206 206 208 206 209 197 199 197 199 191 188 201 202 202 202 188 172 184 189 184 179 181 176 180
283 282 281 278 283 286 290 292 290 289 291 292 289 292 301 309 312 313 311 307 306 305 303 305 304 302 301 304 307 304 292 285 272 252 249 241 224 219 217 209 204 206 205 204 199 200 198 188 189 195 205 205 204 196 181 181 191 179 175 177 183 180
286 278 275 280 278 285 286 285 285 286 288 283 283 294 302 308 313 311 309 308 307 306 303 299 297 298 303 298 296 288 284 281 269 257 250 245 241 235 230 215 205 199 207 206 211 209 198 191 190 196 201 205 205 202 192 185 179 184 182 181 182 185
281 286 285 281 283 285 283 280 285 286 286 283 291 303 306 312 310 309 308 307 305 302 297 294 288 282 277 276 273 265 265 259 238 238 230 236 235 241 235 230 214 210 209 207 210 209 203 201 196 201 200 207 208 207 199 189 181 182 177 181 185 165
290 291 288 285 283 280 282 279 284 290 288 289 303 305 310 310 309 306 304 303 300 297 296 295 290 279 266 258 245 252 250 248 225 232 224 216 232 234 237 234 214 218 221 217 216 208 203 198 199 202 205 204 210 210 197 192 183 184 173 171 166 118
289 289 290 291 286 282 278 279 276 280 282 292 299 303 308 307 305 303 299 298 298 300 303 303 298 287 265 252 234 236 239 238 228 224 224 207 223 227 234 236 224 224 224 230 225 208 195 192 193 203 205 206 208 212 204 189 186 179 172 157 155 161
294 291 289 289 291 291 289 286 283 277 286 292 298 305 305 301 300 298 299 297 300 301 301 299 297 295 287 256 244 234 238 230 225 224 225 215 218 225 231 234 230 227 226 231 227 212 188 175 198 202 204 203 206 203 207 187 184 174 159 148 155 160
287 287 288 286 285 290 293 290 286 286 288 290 300 310 308 301 297 298 298 298 299 296 293 290 288 287 283 275 250 244 241 230 222 225 224 216 213 217 226 226 228 226 222 226 219 202 201 203 202 203 200 204 200 201 197 178 174 170 159 155 154 156
291 287 287 285 287 290 290 287 286 287 288 293 310 317 311 303 302 302 299 296 293 286 285 284 284 282 281 276 265 242 238 236 226 226 234 225 217 214 221 220 227 227 223 217 208 193 204 209 213 210 196 200 198 191 188 176 176 166 164 162 155 147
286 288 288 286 289 291 289 290 288 287 289 303 314 318 306 304 301 296 290 287 286 284 282 281 279 279 280 276 272 267 256 234 233 231 228 240 219 223 224 220 226 222 212 216 214 196 200 206 213 201 197 200 200 201 196 183 174 166 159 164 161 152
290 290 286 287 293 292 292 292 290 291 295 308 313 309 300 298 293 287 282 280 277 278 281 282 283 281 279 276 274 267 265 269 242 236 239 238 233 221 229 230 232 230 220 210 219 213 219 228 222 204 202 201 201 200 199 185 178 168 166 165 157 158
297 294 291 294 295 295 296 292 287 288 296 305 301 296 291 288 284 281 281 279 278 279 278 278 276 278 276 275 274 268 266 260 265 257 235 240 240 237 235 234 234 233 231 227 219 204 210 217 211 200 202 204 201 200 199 189 178 171 170 171 162 162
298 295 294 295 295 295 292 289 287 291 297 297 293 291 287 283 279 277 278 277 278 277 276 275 272 270 270 270 267 267 259 258 255 257 263 238 237 238 234 234 234 233 232 227 224 215 202 198 201 202 202 202 203 201 200 191 179 173 174 169 168 176
296 294 294 295 294 291 290 286 286 293 297 294 288 284 277 276 273 271 271 274 274 274 271 267 266 269 268 268 269 270 271 264 253 251 251 252 232 237 239 237 234 232 231 229 224 220 216 210 203 202 202 202 202 201 200 192 184 177 178 174 173 172
293 290 290 292 292 288 284 283 284 291 288 282 278 274 269 267 265 265 265 269 271 269 267 262 263 261 262 263 261 258 252 252 256 252 248 239 233 226 224 218 225 229 227 224 222 219 215 210 206 202 201 201 201 201 200 191 178 183 185 178 172 170
286 283 285 285 282 280 280 279 284 285 279 274 272 267 266 267 267 265 264 265 266 267 269 270 270 271 271 269 267 255 244 245 247 244 240 238 234 230 222 224 215 210 217 220 220 215 213 210 206 202 201 201 200 199 196 190 186 184 184 174 169 165